STARLINK-3753, 52292

Orbit data source: Space-Track

STARLINK-3753, 52292 is a payload satellite owned by SpaceX/Seattle (US) in LEO that was launched on Thu, 21 Apr 2022 UTC via an FALCON 9 launch vehicle from the Air Force Eastern Test Range (AFETR). Payload-class satellites include a variety of spacecraft equipped with specific instruments for various scientific and technological missions. These include communications satellites like Starlink; space stations such as the ISS; scientific satellites like the Hubble; Earth observation satellites from companies like Planet Labs, Umbra, and HawkEye 360; GPS; miniature CubeSats for education and research; and military/defense satellites.

Loading next visibility...
Identifier
52292, 2022-041AH
Orbit
LEO
Country
Flag of USUS
Related business
Manufacturer
SpaceX/Seattle
Mission
Operational Commercial Communications
Bus & Motor
STARLINK, Unknown motor
Mass
297 kg wet, ~275 kg dry
Launch date (UTC)
2022-04-21 (4 years ago)
Launch vehicle
FALCON 9
Launch site
Air Force Eastern Test Range (AFETR)
Object type
Payload
Rocket body
Debris
Shape & HBR
Box + 1 Pan, 10.1 m
Radar Cross Section
11.087 m², Large (>1 m²)

Expand to show TLE details & history
Last TLE update: 15 hours ago

TLE from 15 hours ago
0 STARLINK-3753
1 52292U 22041AH  26129.88923167  .00000170  00000-0  28798-4 0  9999
2 52292  53.2163 184.3836 0001248  89.0301 271.0834 15.08839375223743
Epoch: 2026-05-09T21:20Z
TLE epoch observation values (Epoch: 2026-05-09T21:20:29.616Z)
Latitude
-0.00002°
Longitude
-3.44001°
Altitude
540.626 km
Speed
7.593 km/s
True Right ascension
12h 17m 32s
True Declination
0° 00' 00"
Sunlit
Object was in full shadow at epoch
Visualization orbit readout
Latitude
Unknown
Longitude
Unknown
Altitude
Unknown
Speed
Unknown
Apparent Right ascension
Unknown
Apparent Declination
Unknown
Sunlit
N/A
Visualization observer readout
Local Sidereal Time
20:35:30
Azimuth
Unknown
Elevation
Unknown
Doppler factor
Unknown
Orbital elements
Apogee altitude
540.854 km
Perigee altitude
539.127 km
Semi-major axis
6,918.127 km
Eccentricity
0.00012
Inclination
53.2163°
RAAN
184.3836°
Arg. of periapsis
89.0301°
True anomaly
271.0691°
Mean anomaly
271.0834°
Eccentric anomaly
271.07625°
Mean motion
3.7719 °/min
Orbital period
95.44 mins
BSTAR
0.000028798
Loading maneuver chart data...
Computing Atmospheric mass density...
Loading historical data...
Loading historical data...
Loading historical data...
Loading historical data...
Loading historical data...
Loading historical data...
Loading historical data...

Documentation

Showing up to 5 results
|